Location: Moscow
(55.7500°N, 37.5830°E)
Time: 06:02:47
(UTC+03:00)

Vanguard 1 - Pass Details

Date: 01 December 2021
Orbit: 652 x 3830 km, 34.2° (Epoch: 21 January)

Event Time Altitude Azimuth Distance (km) Brightness Sun altitude
Rises 22:21:19 0° 181° (S) 7,398 - -49.8°
Reaches altitude 10° 22:29:24 10° 164° (SSE) 6,750 - -50.6°
Maximum altitude 22:40:43 16° 134° (SE) 6,369 - -51.6°
Drops below altitude 10° 22:51:53 10° 104° (ESE) 6,711 - -52.5°
Exits shadow 22:59:05 - 88° (E) 7,292 14.3 -53.1°
Sets 22:59:40 0° 87° (E) 7,350 14.3 -53.1°
